Previsão horária em Jurandowo

Hoje, 18 Junho, Sexta-feira

Tempo Temperatura Precipitação Vento Pressão Humidade
00:00 +16°C° 0 mm 3 m/s 765 mmHg 79%
01:00 +16°C° 0 mm 3 m/s 765 mmHg 79%
02:00 +16°C° 0 mm 3 m/s 765 mmHg 81%
03:00 +16°C° 0 mm 3 m/s 765 mmHg 83%
04:00 +16°C° 0 mm 3 m/s 765 mmHg 85%
05:00 +18°C° 0 mm 3 m/s 765 mmHg 80%
06:00 +20°C° 0 mm 3 m/s 765 mmHg 75%
07:00 +21°C° 0 mm 4 m/s 765 mmHg 70%
08:00 +23°C° 0 mm 4 m/s 765 mmHg 65%
09:00 +25°C° 0 mm 3 m/s 765 mmHg 61%
10:00 +27°C° 0 mm 3 m/s 765 mmHg 56%
11:00 +28°C° 0 mm 4 m/s 765 mmHg 54%
12:00 +28°C° 0 mm 4 m/s 764 mmHg 52%
13:00 +29°C° 0 mm 4 m/s 764 mmHg 49%
14:00 +29°C° 0 mm 4 m/s 764 mmHg 53%
15:00 +29°C° 0 mm 3 m/s 764 mmHg 56%
16:00 +30°C° 0 mm 3 m/s 764 mmHg 60%
17:00 +28°C° 0 mm 3 m/s 763 mmHg 65%
18:00 +27°C° 0 mm 3 m/s 763 mmHg 71%
19:00 +26°C° 0 mm 3 m/s 763 mmHg 76%
20:00 +25°C° 0 mm 3 m/s 763 mmHg 78%
21:00 +22°C° 0 mm 3 m/s 764 mmHg 79%
22:00 +21°C° 0 mm 3 m/s 764 mmHg 81%
23:00 +20°C° 0 mm 4 m/s 764 mmHg 82%

Amanhã, 19 Junho, Sábado

Tempo Temperatura Precipitação Vento Pressão Humidade
00:00 +20°C° 0 mm 4 m/s 764 mmHg 83%
01:00 +20°C° 0 mm 4 m/s 764 mmHg 84%
02:00 +19°C° 0 mm 3 m/s 764 mmHg 86%
03:00 +19°C° 0 mm 3 m/s 764 mmHg 87%
04:00 +18°C° 0 mm 3 m/s 763 mmHg 88%
05:00 +20°C° 0 mm 3 m/s 763 mmHg 84%
06:00 +22°C° 0 mm 4 m/s 763 mmHg 79%
07:00 +25°C° 0 mm 4 m/s 763 mmHg 75%
08:00 +26°C° 0 mm 4 m/s 763 mmHg 70%
09:00 +27°C° 0 mm 4 m/s 763 mmHg 65%
10:00 +28°C° 0 mm 4 m/s 763 mmHg 60%
11:00 +29°C° 0 mm 4 m/s 763 mmHg 57%
12:00 +29°C° 0 mm 4 m/s 763 mmHg 54%
13:00 +30°C° 0 mm 4 m/s 763 mmHg 51%
14:00 +30°C° 0 mm 4 m/s 762 mmHg 53%
15:00 +30°C° 0 mm 3 m/s 762 mmHg 55%
16:00 +30°C° 0 mm 3 m/s 762 mmHg 56%
17:00 +29°C° 0 mm 2 m/s 762 mmHg 63%
18:00 +28°C° 0 mm 2 m/s 762 mmHg 69%
19:00 +27°C° 0 mm 2 m/s 761 mmHg 75%
20:00 +26°C° 0 mm 2 m/s 762 mmHg 77%
21:00 +24°C° 0 mm 3 m/s 762 mmHg 80%
22:00 +22°C° 0 mm 3 m/s 762 mmHg 83%
23:00 +22°C° 0 mm 3 m/s 762 mmHg 84%

Depois de amanhã, 20 Junho, Domingo

Tempo Temperatura Precipitação Vento Pressão Humidade
00:00 +22°C° 0 mm 3 m/s 761 mmHg 84%
01:00 +21°C° 0 mm 3 m/s 761 mmHg 85%
02:00 +21°C° 0 mm 3 m/s 761 mmHg 85%
03:00 +21°C° 0 mm 3 m/s 761 mmHg 86%
04:00 +21°C° 0 mm 3 m/s 761 mmHg 86%
05:00 +22°C° 0 mm 3 m/s 761 mmHg 83%
06:00 +24°C° 0 mm 3 m/s 761 mmHg 80%
07:00 +25°C° 0 mm 3 m/s 761 mmHg 77%
08:00 +26°C° 0 mm 3 m/s 761 mmHg 72%
09:00 +27°C° 0 mm 4 m/s 761 mmHg 67%
10:00 +29°C° 0 mm 4 m/s 761 mmHg 63%
11:00 +29°C° 0 mm 4 m/s 761 mmHg 59%
12:00 +30°C° 0 mm 4 m/s 760 mmHg 56%
13:00 +30°C° 0 mm 4 m/s 760 mmHg 52%
14:00 +30°C° 0 mm 4 m/s 760 mmHg 54%
15:00 +30°C° 0 mm 3 m/s 760 mmHg 56%
16:00 +30°C° 0 mm 3 m/s 759 mmHg 57%
17:00 +29°C° 0 mm 3 m/s 759 mmHg 63%
18:00 +28°C° 0 mm 2 m/s 759 mmHg 69%
19:00 +26°C° 0 mm 2 m/s 759 mmHg 75%
20:00 +25°C° 0 mm 3 m/s 759 mmHg 76%
21:00 +24°C° 0 mm 3 m/s 759 mmHg 78%
22:00 +22°C° 0 mm 3 m/s 759 mmHg 79%
23:00 +21°C° 0 mm 3 m/s 758 mmHg 82%

21 Junho, Segunda-feira

Tempo Temperatura Precipitação Vento Pressão Humidade
00:00 +21°C° 0 mm 3 m/s 758 mmHg 85%
01:00 +20°C° 0 mm 3 m/s 758 mmHg 88%
02:00 +20°C° 0 mm 3 m/s 758 mmHg 90%
03:00 +20°C° 0 mm 3 m/s 758 mmHg 92%
04:00 +20°C° 0 mm 3 m/s 758 mmHg 93%
05:00 +21°C° 0 mm 4 m/s 758 mmHg 87%
06:00 +23°C° 0 mm 4 m/s 758 mmHg 81%
07:00 +25°C° 0 mm 5 m/s 758 mmHg 74%
08:00 +27°C° 0 mm 5 m/s 757 mmHg 69%
09:00 +28°C° 0 mm 6 m/s 757 mmHg 63%
10:00 +29°C° 0 mm 6 m/s 757 mmHg 57%
11:00 +29°C° 0 mm 6 m/s 757 mmHg 54%
12:00 +30°C° 0 mm 6 m/s 756 mmHg 52%
13:00 +30°C° 0 mm 5 m/s 756 mmHg 49%
14:00 +30°C° 0 mm 5 m/s 756 mmHg 52%
15:00 +30°C° 0 mm 5 m/s 756 mmHg 54%
16:00 +30°C° 0 mm 4 m/s 756 mmHg 57%
17:00 +29°C° 0 mm 4 m/s 756 mmHg 63%
18:00 +27°C° 0 mm 3 m/s 755 mmHg 69%
19:00 +26°C° 0 mm 3 m/s 755 mmHg 74%
20:00 +25°C° 0 mm 3 m/s 755 mmHg 76%
21:00 +24°C° 0 mm 2 m/s 756 mmHg 77%
22:00 +23°C° 0 mm 2 m/s 756 mmHg 78%
23:00 +23°C° 0 mm 2 m/s 756 mmHg 81%

22 Junho, Terça-feira

Tempo Temperatura Precipitação Vento Pressão Humidade
00:00 +21°C° 0 mm 2 m/s 756 mmHg 84%
01:00 +20°C° 0 mm 2 m/s 756 mmHg 87%
02:00 +20°C° 0.2 mm 2 m/s 756 mmHg 89%
03:00 +20°C° 0.2 mm 2 m/s 756 mmHg 91%
04:00 +20°C° 0.2 mm 2 m/s 756 mmHg 93%
05:00 +20°C° 0.9 mm 2 m/s 756 mmHg 93%
06:00 +22°C° 0.9 mm 1 m/s 757 mmHg 93%
07:00 +22°C° 0.9 mm 1 m/s 757 mmHg 93%
08:00 +23°C° 0.2 mm 2 m/s 757 mmHg 89%
09:00 +24°C° 0.2 mm 2 m/s 758 mmHg 85%
10:00 +24°C° 0.2 mm 2 m/s 758 mmHg 81%
11:00 +25°C° 0 mm 3 m/s 758 mmHg 79%
12:00 +25°C° 0 mm 3 m/s 758 mmHg 77%
13:00 +25°C° 0 mm 3 m/s 759 mmHg 75%
14:00 +25°C° 0 mm 3 m/s 759 mmHg 74%
15:00 +25°C° 0 mm 4 m/s 759 mmHg 72%
16:00 +23°C° 0 mm 4 m/s 759 mmHg 71%
17:00 +22°C° 0 mm 3 m/s 760 mmHg 75%
18:00 +21°C° 0 mm 3 m/s 760 mmHg 79%
19:00 +20°C° 0 mm 3 m/s 760 mmHg 83%
20:00 +18°C° 0 mm 3 m/s 760 mmHg 86%
21:00 +17°C° 0 mm 2 m/s 761 mmHg 89%
22:00 +16°C° 0 mm 2 m/s 761 mmHg 92%
23:00 +16°C° 0 mm 2 m/s 761 mmHg 92%

23 Junho, Quarta-feira

Tempo Temperatura Precipitação Vento Pressão Humidade
00:00 +15°C° 0 mm 2 m/s 761 mmHg 92%
01:00 +15°C° 0 mm 2 m/s 761 mmHg 92%
02:00 +15°C° 0 mm 2 m/s 761 mmHg 92%
03:00 +15°C° 0 mm 2 m/s 761 mmHg 93%
04:00 +15°C° 0 mm 2 m/s 761 mmHg 93%
05:00 +17°C° 0 mm 2 m/s 761 mmHg 87%
06:00 +19°C° 0 mm 2 m/s 762 mmHg 81%
07:00 +20°C° 0 mm 3 m/s 762 mmHg 75%
08:00 +21°C° 0 mm 3 m/s 762 mmHg 71%
09:00 +22°C° 0 mm 3 m/s 762 mmHg 67%
10:00 +23°C° 0 mm 4 m/s 762 mmHg 63%
11:00 +25°C° 0 mm 4 m/s 762 mmHg 63%
12:00 +25°C° 0 mm 5 m/s 763 mmHg 62%
13:00 +25°C° 0 mm 5 m/s 763 mmHg 61%
14:00 +23°C° 0 mm 5 m/s 763 mmHg 65%
15:00 +22°C° 0 mm 5 m/s 763 mmHg 68%
16:00 +21°C° 0 mm 5 m/s 763 mmHg 71%
17:00 +20°C° 0 mm 5 m/s 763 mmHg 75%
18:00 +19°C° 0 mm 4 m/s 763 mmHg 79%
19:00 +19°C° 0 mm 4 m/s 763 mmHg 83%
20:00 +18°C° 0 mm 4 m/s 763 mmHg 87%
21:00 +17°C° 0 mm 4 m/s 763 mmHg 90%
22:00 +16°C° 0 mm 3 m/s 763 mmHg 94%
23:00 +16°C° 0 mm 3 m/s 763 mmHg 94%
Mostrar mais

Necessitamos do seu Consentimento

A Meteoprog e os seus Fornecedores de Serviços podem armazenar e aceder a dados pessoais como cookies, identificadores do dispositivo ou outras tecnologias semelhantes existentes no seu dispositivo e processar estes dados para personalizar conteúdos e anúncios, assim como funcionalidades nas redes sociais e análise de tráfego.

  • Armazenar e/ou aceder a informações no seu dispositivo

    Os cookies, identificadores do dispositivo ou outras informações podem ser armazenados ou acedidos no seu dispositivo, para os fins acima indicados.

  • Anúncios e conteúdos personalizados, medição de anúncios e conteúdos, dados sobre o público-alvo e desenvolvimento de produtos

    Os anúncios e os conteúdos podem ser personalizados com base num perfil. Podem ser adicionados dados adicionais para uma maior personalização dos anúncios e dos conteúdos. A eficácia dos anúncios e dos conteúdos pode ser medida. Podem ser obtidas informações sobre o público que visualizou os anúncios e os conteúdos. Estes dados podem ser usados para desenvolver ou melhorar sistemas, softwares ou a experiência do utilizador.

Ao clicar em "Eu concordo”, permitirá o uso de cookies, identificadores do dispositivo e web beacons mencionados ou outras tecnologias semelhantes. As configurações do navegador do seu dispositivo podem ser alteradas.

Para certos fins, podem ser invocados interesses legítimos ao invés de consentimento. Pode ler mais informação sobre este assunto na nossa Política de Privacidade e Cookies.